COSMOS 2151

Satellite information

Favourite Embed

Satellite Type and Status

PAYLOADIN ORBIT

Key statistics

Satellite COSMOS 2151 at a glance.

Uptime

12602

Days in orbit

Revolutions

≈ 15.0

Per day

Orbit

LEO

Low Earth Orbit

Inclination

82.5

Latest

Satellite identification and parameters

Extended collection of information and parameters for COSMOS 2151.

Object identification

Identified? True

Debris? False

Object name: COSMOS 2151

International designator: 1991-042A

Object number (NORAD): 21422

Object ID (CCSDS): 21422

Country: COMMONWEALTH OF INDEPENDENT STATES (CIS)

Current information (Y/N): Y

RCS size: LARGE

Orbital parameters

Period: 96.02 minutes

Inclination: 82.496 deg

SMA: 6946.01 km

Apoapsis: 576.617 km

Periapsis: 559.133 km

RAAN: 168.0014 deg

Eccentricy: 0.0012585

Argument of periapsis: 1.7105 deg

Mean anomaly: 358.416 deg

Mean motion: 14.99683646 rev/day

Mean motion (dot): 0.00002678 rev/day2

B* drag term: 0.00021478514 1/REarth

Two-line elements (TLE)

Creation date: Dec. 12, 2025, 10:14 a.m.

Reference frame: TEME

Reference center: EARTH

Epoch: Dec. 12, 2025, 5:20 a.m. UTC

TLE line 0: 0 COSMOS 2151

TLE line 1: 1 21422U 91042A 25346.22288369 .00002678 00000-0 21479-3 0 9996

TLE line 2: 2 21422 82.4960 168.0014 0012585 1.7105 358.4160 14.99683646850081

Live tracking on map

Real-time ground track for satellite COSMOS 2151.

In-orbit conjunctions

There are no conjunctions computed for COSMOS 2151, at the moment. Check back to stay up to date, as we update our databases every day.

Go to all conjunctions

Associated space launch

Tselina-R series ELINT satellite

COSMOS 2151 was lifted into orbit during the mission ‘Tsiklon-3 | Tselina-R 3’, on board a Tsiklon-3 space rocket.

The launch took place on June 13, 1991, 3:41 p.m. from 32/2.

For more information about the launch, click the button.

Launch to space Tsiklon-3 | Tselina-R 3
Tsiklon-3 | Tselina-R 3

Agency: N/A

Status: Launch Successful

Launch date: June 13, 1991, 3:41 p.m. UTC

Rocket: Tsiklon-3

Launch pad: 32/2

Location: Plesetsk Cosmodrome, Russian Federation

...

Latest news about this satellite

There are no fresh news available about this satellite. Check back as we update our databases every day.


Newsletter sign-up

Weekly statistics, charts and insights to help you stay on top of the space industry.